Location: Bastogne Gables
(35.1554°N, 78.9900°W)
Time: 03:12:54
(UTC+00:00)

Helios 1A Rocket - Pass Details

Date: 29 October 2020
Orbit: 562 x 587 km, 98.3° (Epoch: 26 November)

Event Time Altitude Azimuth Distance (km) Brightness Sun altitude
Rises 23:34:21 0° 158° (SSE) 2,793 6.3 -14.9°
Reaches altitude 10° 23:36:31 10° 155° (SSE) 1,895 5.4 -15.4°
Maximum altitude 23:40:34 61° 75° (ENE) 659 2.9 -16.2°
Drops below altitude 10° 23:44:37 10° 355° (N) 1,895 5.6 -17.0°
Sets 23:46:47 0° 352° (N) 2,794 6.5 -17.5°
